Time,TemperatureF,DewpointF,PressureIn,WindDirection,WindDirectionDegrees,WindSpeedMPH,WindSpeedGustMPH,Humidity,HourlyPrecipIn,Conditions,Clouds,dailyrainin,SolarRadiationWatts/m^2,SoftwareType,DateUTC
2013-07-02 00:01:00,65.0,58.0,29.99,NE,53,0.0,4.0,79,0.00,,,0.00,0.000000,,2013-07-02 05:01:00,
2013-07-02 00:11:00,65.0,58.0,29.99,NNE,28,1.0,4.0,77,0.00,,,0.00,0.000000,,2013-07-02 05:11:00,
2013-07-02 00:22:00,64.0,57.0,29.99,NNE,15,2.0,5.0,77,0.00,,,0.00,0.000000,,2013-07-02 05:22:00,
2013-07-02 00:32:00,64.0,57.0,29.99,NE,45,2.0,5.0,77,0.00,,,0.00,0.000000,,2013-07-02 05:32:00,
2013-07-02 00:43:00,64.0,57.0,29.99,NE,45,2.0,5.0,77,0.00,,,0.00,0.000000,,2013-07-02 05:43:00,
2013-07-02 00:53:00,64.0,57.0,29.99,ENE,69,1.0,6.0,77,0.00,,,0.00,0.000000,,2013-07-02 05:53:00,
2013-07-02 01:01:00,64.0,57.0,29.99,ENE,59,1.0,5.0,77,0.00,,,0.00,0.000000,,2013-07-02 06:01:00,
2013-07-02 01:12:00,64.0,57.0,29.99,ENE,59,1.0,5.0,77,0.00,,,0.00,0.000000,,2013-07-02 06:12:00,
2013-07-02 01:23:00,64.0,57.0,29.99,ENE,69,1.0,4.0,78,0.00,,,0.00,0.000000,,2013-07-02 06:23:00,
2013-07-02 01:34:00,64.0,57.0,29.99,ENE,65,2.0,6.0,77,0.00,,,0.00,0.000000,,2013-07-02 06:34:00,
2013-07-02 01:43:00,64.0,57.0,29.99,ENE,65,2.0,6.0,77,0.00,,,0.00,0.000000,,2013-07-02 06:43:00,
2013-07-02 01:53:00,64.0,57.0,29.99,East,84,1.0,6.0,79,0.00,,,0.00,0.000000,,2013-07-02 06:53:00,
2013-07-02 02:01:00,63.0,57.0,29.98,North,9,3.0,6.0,82,0.01,,,0.01,0.000000,,2013-07-02 07:01:00,
2013-07-02 02:12:00,63.0,57.0,29.98,North,9,3.0,6.0,82,0.01,,,0.01,0.000000,,2013-07-02 07:12:00,
2013-07-02 02:22:00,61.0,56.0,29.98,North,5,2.0,8.0,85,0.01,,,0.01,0.000000,,2013-07-02 07:22:00,
2013-07-02 02:34:00,61.0,57.0,29.97,NNE,13,2.0,4.0,87,0.01,,,0.01,0.000000,,2013-07-02 07:34:00,
2013-07-02 02:44:00,61.0,57.0,29.97,NNE,13,2.0,4.0,87,0.01,,,0.01,0.000000,,2013-07-02 07:44:00,
2013-07-02 02:53:00,61.0,57.0,29.97,NE,46,3.0,6.0,87,0.01,,,0.01,0.000000,,2013-07-02 07:53:00,
2013-07-02 03:02:00,61.0,57.0,29.97,NE,36,3.0,7.0,87,0.00,,,0.01,0.000000,,2013-07-02 08:02:00,
2013-07-02 03:12:00,61.0,57.0,29.97,NE,36,3.0,7.0,87,0.00,,,0.01,0.000000,,2013-07-02 08:12:00,
2013-07-02 03:22:00,61.0,57.0,29.96,NNE,30,2.0,6.0,88,0.00,,,0.01,0.000000,,2013-07-02 08:22:00,
2013-07-02 03:33:00,61.0,57.0,29.96,North,5,2.0,6.0,88,0.00,,,0.01,0.000000,,2013-07-02 08:33:00,
2013-07-02 03:44:00,61.0,57.0,29.96,North,5,2.0,6.0,88,0.00,,,0.01,0.000000,,2013-07-02 08:44:00,
2013-07-02 03:53:00,61.0,57.0,29.96,NNE,25,2.0,4.0,87,0.00,,,0.01,0.000000,,2013-07-02 08:53:00,
2013-07-02 04:02:00,61.0,57.0,29.96,NE,54,3.0,5.0,87,0.00,,,0.01,0.000000,,2013-07-02 09:02:00,
2013-07-02 04:11:00,61.0,57.0,29.96,NE,54,3.0,5.0,87,0.00,,,0.01,0.000000,,2013-07-02 09:11:00,
2013-07-02 04:23:00,61.0,57.0,29.96,NE,54,3.0,5.0,87,0.00,,,0.01,0.000000,,2013-07-02 09:23:00,
2013-07-02 04:33:00,61.0,57.0,29.96,NE,54,3.0,5.0,87,0.00,,,0.01,0.000000,,2013-07-02 09:33:00,
2013-07-02 04:43:00,61.0,57.0,29.96,NE,54,3.0,5.0,87,0.00,,,0.01,0.000000,,2013-07-02 09:43:00,
2013-07-02 09:11:00,62.0,56.0,30.01,NNE,27,4.0,10.0,82,0.00,,,0.02,104.000000,,2013-07-02 14:11:00,
2013-07-02 09:22:00,63.0,57.0,30.01,North,11,5.0,12.0,82,0.00,,,0.02,118.000000,,2013-07-02 14:22:00,
2013-07-02 09:43:00,63.0,57.0,30.00,NNE,16,7.0,11.0,81,0.00,,,0.02,160.000000,,2013-07-02 14:43:00,
2013-07-02 09:53:00,63.0,57.0,30.01,NNW,348,5.0,13.0,81,0.00,,,0.02,258.000000,,2013-07-02 14:53:00,
2013-07-02 10:02:00,64.0,57.0,30.01,NE,36,6.0,13.0,79,0.00,,,0.02,318.000000,,2013-07-02 15:02:00,
2013-07-02 10:11:00,64.0,57.0,30.01,NE,36,6.0,13.0,79,0.00,,,0.02,318.000000,,2013-07-02 15:11:00,
2013-07-02 10:22:00,65.0,58.0,30.01,NE,38,6.0,12.0,78,0.00,,,0.02,404.000000,,2013-07-02 15:22:00,
2013-07-02 10:33:00,66.0,58.0,30.01,North,360,6.0,15.0,76,0.00,,,0.02,468.000000,,2013-07-02 15:33:00,
2013-07-02 10:44:00,66.0,58.0,30.01,North,360,6.0,15.0,76,0.00,,,0.02,468.000000,,2013-07-02 15:44:00,
2013-07-02 10:53:00,66.0,58.0,30.01,NNE,19,5.0,14.0,76,0.00,,,0.02,485.000000,,2013-07-02 15:53:00,
2013-07-02 11:01:00,67.0,60.0,30.01,NNW,344,1.0,15.0,78,0.00,,,0.02,443.000000,,2013-07-02 16:01:00,
2013-07-02 11:12:00,67.0,60.0,30.01,NNW,344,1.0,15.0,78,0.00,,,0.02,443.000000,,2013-07-02 16:12:00,
2013-07-02 11:22:00,67.0,59.0,30.01,ENE,59,6.0,15.0,75,0.00,,,0.02,563.000000,,2013-07-02 16:22:00,
2013-07-02 11:33:00,67.0,58.0,30.01,NNE,25,5.0,13.0,74,0.00,,,0.02,547.000000,,2013-07-02 16:33:00,
2013-07-02 11:43:00,67.0,58.0,30.01,NNE,25,5.0,13.0,74,0.00,,,0.02,547.000000,,2013-07-02 16:43:00,
2013-07-02 11:52:00,68.0,60.0,30.01,North,355,3.0,12.0,75,0.00,,,0.02,504.000000,,2013-07-02 16:52:00,
2013-07-02 12:02:00,68.0,59.0,30.01,NNE,18,7.0,14.0,74,0.00,,,0.02,577.000000,,2013-07-02 17:02:00,
2013-07-02 12:12:00,68.0,59.0,30.01,NNE,18,7.0,14.0,74,0.00,,,0.02,577.000000,,2013-07-02 17:12:00,
2013-07-02 12:33:00,69.0,59.0,30.01,North,360,6.0,15.0,71,0.00,,,0.02,571.000000,,2013-07-02 17:33:00,
2013-07-02 12:43:00,69.0,59.0,30.01,North,360,6.0,15.0,71,0.00,,,0.02,571.000000,,2013-07-02 17:43:00,
2013-07-02 12:53:00,69.0,59.0,30.01,NE,42,5.0,15.0,71,0.00,,,0.02,566.000000,,2013-07-02 17:53:00,
2013-07-02 13:02:00,70.0,60.0,30.01,ENE,78,7.0,12.0,70,0.00,,,0.02,554.000000,,2013-07-02 18:02:00,
2013-07-02 13:12:00,70.0,60.0,30.01,ENE,78,7.0,12.0,70,0.00,,,0.02,554.000000,,2013-07-02 18:12:00,
2013-07-02 13:23:00,70.0,58.0,30.02,NNE,23,6.0,12.0,65,0.00,,,0.02,485.000000,,2013-07-02 18:23:00,
2013-07-02 13:34:00,70.0,58.0,30.01,North,9,6.0,16.0,65,0.00,,,0.02,654.000000,,2013-07-02 18:34:00,
2013-07-02 13:43:00,70.0,58.0,30.01,North,9,6.0,16.0,65,0.00,,,0.02,654.000000,,2013-07-02 18:43:00,
2013-07-02 13:53:00,70.0,58.0,30.01,NNE,33,7.0,16.0,66,0.00,,,0.02,896.000000,,2013-07-02 18:53:00,
2013-07-02 14:01:00,69.0,57.0,30.01,NNE,15,7.0,15.0,65,0.00,,,0.02,457.000000,,2013-07-02 19:01:00,
2013-07-02 14:12:00,69.0,57.0,30.01,NNE,15,7.0,15.0,65,0.00,,,0.02,457.000000,,2013-07-02 19:12:00,
2013-07-02 14:22:00,69.0,56.0,30.01,North,355,7.0,19.0,63,0.00,,,0.02,446.000000,,2013-07-02 19:22:00,
2013-07-02 14:34:00,69.0,55.0,30.01,ENE,57,8.0,20.0,62,0.00,,,0.02,612.000000,,2013-07-02 19:34:00,
2013-07-02 14:43:00,69.0,55.0,30.01,ENE,57,8.0,20.0,62,0.00,,,0.02,612.000000,,2013-07-02 19:43:00,
2013-07-02 14:53:00,69.0,57.0,30.01,NE,46,9.0,21.0,66,0.00,,,0.02,353.000000,,2013-07-02 19:53:00,
2013-07-02 15:02:00,68.0,57.0,30.01,NNE,18,8.0,16.0,69,0.00,,,0.02,232.000000,,2013-07-02 20:02:00,
2013-07-02 15:11:00,68.0,57.0,30.01,NNE,18,8.0,16.0,69,0.00,,,0.02,232.000000,,2013-07-02 20:11:00,
2013-07-02 15:22:00,68.0,58.0,30.00,North,11,4.0,14.0,70,0.00,,,0.02,190.000000,,2013-07-02 20:22:00,
2013-07-02 15:33:00,68.0,57.0,30.00,NNE,26,4.0,14.0,69,0.00,,,0.02,202.000000,,2013-07-02 20:33:00,
2013-07-02 15:43:00,68.0,57.0,30.00,NNE,26,4.0,14.0,69,0.00,,,0.02,202.000000,,2013-07-02 20:43:00,
2013-07-02 15:52:00,68.0,58.0,30.00,NNW,348,4.0,12.0,71,0.00,,,0.02,232.000000,,2013-07-02 20:52:00,
2013-07-02 16:02:00,68.0,58.0,30.00,NE,37,4.0,13.0,71,0.00,,,0.02,246.000000,,2013-07-02 21:02:00,
2013-07-02 16:11:00,68.0,58.0,30.00,NE,37,4.0,13.0,71,0.00,,,0.02,246.000000,,2013-07-02 21:11:00,
2013-07-02 16:22:00,68.0,59.0,30.00,NE,38,4.0,11.0,72,0.00,,,0.02,232.000000,,2013-07-02 21:22:00,
2013-07-02 16:33:00,68.0,59.0,30.00,North,355,8.0,13.0,72,0.00,,,0.02,232.000000,,2013-07-02 21:33:00,
2013-07-02 16:44:00,68.0,59.0,30.00,North,355,8.0,13.0,72,0.00,,,0.02,232.000000,,2013-07-02 21:44:00,
2013-07-02 16:52:00,68.0,59.0,30.00,North,350,5.0,12.0,73,0.00,,,0.02,316.000000,,2013-07-02 21:52:00,
2013-07-02 17:01:00,69.0,59.0,30.00,NE,38,7.0,14.0,71,0.00,,,0.02,360.000000,,2013-07-02 22:01:00,
2013-07-02 17:11:00,69.0,59.0,30.00,NE,38,7.0,14.0,71,0.00,,,0.02,360.000000,,2013-07-02 22:11:00,
2013-07-02 17:22:00,69.0,59.0,30.00,NE,47,6.0,11.0,71,0.00,,,0.02,338.000000,,2013-07-02 22:22:00,
2013-07-02 17:34:00,69.0,59.0,29.99,NNE,17,6.0,12.0,71,0.00,,,0.02,294.000000,,2013-07-02 22:34:00,
2013-07-02 17:43:00,69.0,59.0,29.99,NNE,17,6.0,12.0,71,0.00,,,0.02,294.000000,,2013-07-02 22:43:00,
2013-07-02 17:53:00,69.0,60.0,29.99,NNE,13,6.0,14.0,72,0.00,,,0.02,265.000000,,2013-07-02 22:53:00,
2013-07-02 18:01:00,69.0,59.0,29.99,NNE,17,4.0,12.0,70,0.00,,,0.02,220.000000,,2013-07-02 23:01:00,
2013-07-02 18:11:00,69.0,59.0,29.99,NNE,17,4.0,12.0,70,0.00,,,0.02,220.000000,,2013-07-02 23:11:00,
2013-07-02 18:22:00,69.0,58.0,29.99,North,10,5.0,12.0,69,0.00,,,0.02,396.000000,,2013-07-02 23:22:00,
2013-07-02 18:33:00,68.0,57.0,29.99,NNE,24,6.0,12.0,69,0.00,,,0.02,137.000000,,2013-07-02 23:33:00,
2013-07-02 18:44:00,68.0,57.0,29.99,NNE,24,6.0,12.0,69,0.00,,,0.02,137.000000,,2013-07-02 23:44:00,
2013-07-02 18:52:00,68.0,57.0,30.00,NNE,20,6.0,13.0,68,0.00,,,0.02,114.000000,,2013-07-02 23:52:00,
2013-07-02 19:01:00,67.0,56.0,30.00,NNE,16,4.0,8.0,68,0.00,,,0.02,137.000000,,2013-07-03 00:01:00,
2013-07-02 19:11:00,67.0,56.0,30.00,NNE,16,4.0,8.0,68,0.00,,,0.02,137.000000,,2013-07-03 00:11:00,
2013-07-02 19:22:00,68.0,57.0,30.00,NNE,24,1.0,9.0,68,0.00,,,0.02,169.000000,,2013-07-03 00:22:00,
2013-07-02 19:33:00,68.0,57.0,30.00,NNE,24,1.0,9.0,68,0.00,,,0.02,169.000000,,2013-07-03 00:33:00,
2013-07-02 19:44:00,67.0,56.0,30.01,NE,49,1.0,11.0,69,0.00,,,0.02,104.000000,,2013-07-03 00:44:00,
2013-07-02 20:01:00,67.0,57.0,30.01,ENE,59,1.0,7.0,71,0.00,,,0.02,93.000000,,2013-07-03 01:01:00,
2013-07-02 20:11:00,66.0,57.0,30.00,North,349,5.0,8.0,72,0.00,,,0.02,26.000000,,2013-07-03 01:11:00,
2013-07-02 20:22:00,66.0,57.0,30.00,North,349,5.0,8.0,72,0.00,,,0.02,26.000000,,2013-07-03 01:22:00,
2013-07-02 20:33:00,65.0,57.0,30.00,NNE,15,2.0,5.0,75,0.00,,,0.02,14.000000,,2013-07-03 01:33:00,
2013-07-02 20:42:00,65.0,57.0,30.00,NNE,15,2.0,5.0,75,0.00,,,0.02,14.000000,,2013-07-03 01:42:00,
2013-07-02 20:56:00,65.0,57.0,30.00,NE,48,1.0,5.0,76,0.00,,,0.02,7.000000,,2013-07-03 01:56:00,
2013-07-02 21:05:00,65.0,57.0,30.00,NE,48,1.0,5.0,76,0.00,,,0.02,7.000000,,2013-07-03 02:05:00,
2013-07-02 21:14:00,64.0,57.0,30.00,NE,46,0.0,7.0,79,0.00,,,0.02,0.000000,,2013-07-03 02:14:00,
2013-07-02 21:27:00,63.0,57.0,30.01,North,5,0.0,2.0,82,0.00,,,0.02,0.000000,,2013-07-03 02:27:00,
2013-07-02 21:39:00,63.0,57.0,30.01,North,5,0.0,2.0,82,0.00,,,0.02,0.000000,,2013-07-03 02:39:00,
2013-07-02 21:44:00,62.0,57.0,30.02,North,5,0.0,0.0,84,0.00,,,0.02,0.000000,,2013-07-03 02:44:00,
2013-07-02 21:55:00,62.0,58.0,30.02,North,5,0.0,0.0,86,0.00,,,0.02,0.000000,,2013-07-03 02:55:00,
2013-07-02 22:13:00,61.0,57.0,30.03,NE,55,0.0,3.0,87,0.00,,,0.02,0.000000,,2013-07-03 03:13:00,
2013-07-02 22:25:00,61.0,57.0,30.03,NE,41,0.0,1.0,88,0.00,,,0.02,0.000000,,2013-07-03 03:25:00,
2013-07-02 22:35:00,62.0,58.0,30.03,ENE,65,0.0,3.0,88,0.00,,,0.02,0.000000,,2013-07-03 03:35:00,
2013-07-02 22:47:00,62.0,58.0,30.03,ENE,65,0.0,3.0,88,0.00,,,0.02,0.000000,,2013-07-03 03:47:00,
2013-07-02 22:55:00,62.0,58.0,30.03,North,11,2.0,4.0,87,0.00,,,0.02,0.000000,,2013-07-03 03:55:00,
2013-07-02 23:01:00,62.0,58.0,30.03,NNE,26,0.0,2.0,88,0.00,,,0.02,0.000000,,2013-07-03 04:01:00,
2013-07-02 23:11:00,62.0,58.0,30.03,NNE,26,0.0,2.0,88,0.00,,,0.02,0.000000,,2013-07-03 04:11:00,
2013-07-02 23:22:00,61.0,57.0,30.03,North,11,2.0,3.0,88,0.00,,,0.02,0.000000,,2013-07-03 04:22:00,
2013-07-02 23:33:00,61.0,57.0,30.03,North,11,2.0,3.0,88,0.00,,,0.02,0.000000,,2013-07-03 04:33:00,
2013-07-02 23:43:00,61.0,58.0,30.03,NE,34,0.0,2.0,89,0.00,,,0.02,0.000000,,2013-07-03 04:43:00,
2013-07-02 23:52:00,61.0,58.0,30.03,NE,34,0.0,1.0,89,0.00,,,0.02,0.000000,,2013-07-03 04:52:00,